Theta_e
358 356 361 358 357 355 351 347 323 330 327 315 319 320 319 331 331 327 326 332 327 336 334 334 336 333 330 328 329 332 331 327 326 323 321 337 350 353 358 356 355 357 359 359 361 361 364 360 359 360 360 360 359 359 360 360 361 360 361 360 359 359 358 357 357 358 357 358 358 359 359 360 360 357 360 362 362 361 360 361 360 359 358 358 357 356 357 356 354 354 358 359 360 361 362 362 363
356 358 357 356 353 350 339 344 327 321 324 317 318 323 324 328 326 325 328 331 328 331 334 333 333 335 333 333 333 332 330 332 336 337 341 346 351 353 352 354 352 353 358 361 360 363 362 361 358 358 359 359 359 359 360 360 360 359 359 359 359 359 358 358 359 360 359 357 356 359 359 361 359 361 361 361 362 361 361 362 360 360 359 357 358 358 356 355 354 353 356 356 361 361 362 363 363
355 357 353 353 354 345 344 341 319 317 314 312 318 322 330 324 325 330 330 331 333 333 335 337 337 334 332 333 329 327 324 337 340 342 342 348 345 351 356 353 354 356 358 359 359 360 362 361 358 358 358 359 359 360 360 360 361 361 359 358 359 358 359 357 360 361 359 358 358 354 357 360 359 360 363 362 362 361 362 361 360 359 359 359 359 358 358 357 357 354 355 356 358 361 362 363 364
359 358 353 351 340 349 335 331 325 319 316 316 318 327 326 327 329 331 333 334 333 334 335 334 333 338 332 326 328 335 333 333 340 341 341 341 348 352 354 354 359 357 355 357 357 357 361 360 357 357 358 359 359 359 360 360 360 360 359 359 359 359 359 359 358 360 357 356 356 353 358 360 362 362 362 362 361 361 360 360 361 360 360 359 359 358 358 357 355 357 356 357 357 360 362 362 363
355 356 354 349 341 332 331 327 325 324 315 316 318 325 329 331 329 331 332 333 334 334 336 334 333 338 338 333 334 329 330 335 336 340 340 346 351 354 355 354 355 355 355 356 357 355 362 360 358 357 357 357 358 360 360 359 361 360 359 359 359 358 358 357 359 359 358 357 357 358 360 361 362 361 361 361 361 360 360 360 360 360 359 359 359 358 358 357 357 357 356 358 359 360 361 362 362
353 354 359 352 336 345 335 323 323 319 324 324 322 326 331 332 331 332 332 334 336 337 337 334 329 330 331 334 336 330 336 330 340 343 344 344 349 352 353 355 352 352 353 357 358 361 362 360 359 358 357 358 358 359 360 359 359 360 360 359 358 356 356 355 357 358 358 357 357 358 359 360 361 362 361 360 360 360 359 360 360 360 360 360 360 359 358 357 356 356 355 355 359 361 362 361 362
348 346 349 349 345 342 323 320 320 323 325 329 327 329 331 332 333 333 332 333 336 336 337 330 331 329 326 332 336 339 341 342 341 342 345 348 350 351 352 352 352 353 355 357 359 362 362 361 359 359 358 359 359 359 360 360 359 359 359 359 358 355 355 357 358 358 356 356 355 357 356 359 360 361 362 361 360 359 359 359 360 359 359 359 359 359 358 358 356 357 359 358 360 362 362 361 361
351 341 342 334 327 330 324 322 323 326 326 332 333 331 334 334 336 334 332 331 329 331 334 335 335 330 329 336 329 341 345 345 344 347 348 349 349 351 352 353 352 352 355 361 362 363 365 359 360 359 359 360 360 360 360 360 359 359 357 358 356 354 354 356 357 358 355 356 356 357 355 356 360 360 362 361 361 359 359 358 359 359 359 359 359 358 357 358 359 359 360 360 360 362 360 360 361
348 344 346 334 321 330 323 319 323 332 329 333 334 337 338 338 339 336 334 335 335 334 333 333 334 330 328 331 333 340 343 346 347 350 348 348 349 351 352 353 352 352 355 359 359 361 362 359 359 360 360 359 358 359 358 359 358 358 358 356 355 353 354 355 356 356 357 357 356 357 357 358 360 360 361 361 360 359 359 359 359 358 359 359 359 359 357 356 359 361 360 361 361 362 362 361 361
347 345 329 329 330 319 321 321 320 329 331 335 334 335 337 339 337 338 334 333 335 334 334 339 334 330 331 327 332 337 339 345 346 346 348 349 349 350 349 351 351 349 355 356 358 359 361 362 359 360 360 360 359 359 359 360 359 357 355 355 354 352 354 355 357 356 358 358 359 359 360 360 360 359 360 361 360 360 359 360 360 359 358 359 360 359 358 357 360 362 361 361 362 362 362 363 361
339 343 343 325 320 319 318 321 325 328 330 337 337 341 342 341 340 338 338 335 335 333 334 336 331 329 331 334 335 342 343 344 343 341 346 347 348 349 348 351 349 350 354 356 358 360 361 361 361 359 360 359 360 359 359 360 358 356 356 355 354 352 355 356 357 359 358 357 358 359 360 360 359 360 360 360 360 360 360 360 359 359 360 360 360 360 359 360 362 362 361 361 362 362 363 362 362
336 334 333 320 321 319 320 322 326 329 333 334 335 342 343 340 340 336 335 332 334 333 331 335 330 335 330 332 332 339 341 342 343 344 345 347 347 348 348 349 349 352 356 356 358 359 360 361 359 360 359 360 359 359 359 359 359 354 356 356 355 356 354 356 358 357 357 357 357 359 359 360 359 359 360 360 359 360 359 358 359 359 360 360 360 361 359 360 362 362 361 361 362 362 363 361 361
334 335 329 323 324 325 322 324 325 328 329 331 334 341 344 341 338 337 337 337 336 335 332 336 335 336 327 330 336 337 337 342 344 345 345 348 349 349 349 348 350 355 357 357 359 358 361 361 359 361 359 359 359 358 359 359 357 357 359 356 356 355 356 356 357 358 358 358 356 356 360 360 360 360 360 359 360 360 359 359 360 359 360 359 359 359 361 360 362 361 362 362 362 362 363 361 362
334 337 334 321 334 326 323 323 326 323 324 334 338 342 343 339 340 341 338 335 336 335 337 337 336 336 332 332 332 333 338 343 344 345 347 348 348 348 347 349 354 356 358 359 357 357 358 358 358 357 363 361 361 360 358 357 357 359 358 358 356 357 357 358 357 359 358 358 356 357 359 360 360 360 361 361 360 360 359 359 360 359 360 359 359 359 361 360 361 363 363 363 362 362 360 360 361
338 340 335 327 326 325 327 321 322 324 322 335 338 342 342 343 341 339 340 338 337 341 339 341 338 334 325 328 328 334 339 343 344 346 347 347 347 347 349 353 356 356 355 358 359 358 356 355 358 361 359 362 361 357 361 360 357 358 357 359 358 358 359 359 358 358 358 357 358 359 360 361 361 361 362 361 361 361 360 360 360 360 361 360 359 361 361 361 361 361 361 361 361 361 361 361 360
343 338 334 324 322 324 324 325 326 324 324 333 341 342 339 341 344 340 342 343 337 338 339 330 337 335 331 331 333 338 342 343 345 346 346 345 346 346 350 354 354 355 355 356 358 360 361 360 365 355 357 356 362 358 359 360 358 357 357 357 358 358 358 358 358 358 358 359 359 359 362 363 362 362 363 361 363 362 361 359 360 360 360 361 361 361 360 360 359 361 361 362 362 363 362 362 363
342 341 328 324 319 322 323 324 324 319 330 333 341 339 336 337 345 342 345 342 335 334 335 333 330 335 332 334 339 342 343 345 347 345 344 344 344 345 351 353 354 355 354 355 360 358 356 355 358 361 358 356 358 356 356 358 360 359 357 357 358 356 357 356 357 359 359 358 359 361 359 361 363 362 361 360 362 362 362 362 362 362 361 360 360 359 359 358 359 360 361 362 364 363 360 361 362
339 332 326 322 325 323 329 325 329 331 330 334 337 340 337 332 337 338 342 339 337 335 332 332 336 336 338 341 343 343 344 344 344 342 340 340 344 345 347 349 350 351 353 354 357 357 356 357 359 358 357 358 357 355 354 357 358 357 358 358 361 357 357 356 357 358 362 363 361 363 364 358 361 363 359 359 358 361 361 362 362 361 360 360 360 361 360 361 362 362 362 364 362 363 362 359 361
334 334 326 321 327 330 335 334 335 332 329 336 339 341 338 334 336 340 337 334 334 331 331 333 334 336 340 341 342 342 342 342 342 341 339 338 342 344 346 349 350 350 352 353 356 357 356 357 358 359 358 357 354 353 353 355 358 361 360 363 361 358 358 358 363 363 360 359 362 362 363 362 363 360 358 357 359 359 360 361 361 361 362 363 362 362 364 364 364 363 364 362 364 363 362 360 360
334 328 324 324 331 333 339 337 336 336 337 335 338 340 340 337 338 345 337 333 333 328 328 331 331 332 336 339 340 340 341 341 342 340 337 340 343 345 346 346 347 352 350 352 354 357 357 355 358 358 360 362 357 352 355 358 361 362 360 362 360 362 363 364 363 364 364 361 364 364 363 363 362 362 361 363 362 359 363 363 362 362 362 363 363 363 364 364 364 365 364 365 364 364 361 355 353
331 329 325 328 333 331 336 338 340 341 339 338 339 340 337 339 338 341 335 331 331 332 332 332 331 333 335 337 338 339 340 340 340 339 338 341 343 346 347 346 347 350 351 354 356 358 357 357 359 360 359 358 359 357 358 358 357 358 359 359 360 360 359 362 364 363 365 365 365 358 356 354 354 358 360 357 352 355 358 358 362 360 362 363 365 365 360 358 362 361 362 364 362 359 352 356 354
331 328 333 333 334 330 340 340 340 339 340 339 338 337 336 344 340 339 336 327 325 331 332 334 334 336 336 336 337 340 340 339 339 340 340 341 342 344 346 347 348 349 351 353 355 357 357 359 360 359 359 359 359 360 356 357 357 356 355 359 359 361 361 361 361 365 364 363 358 352 352 352 353 354 355 354 355 357 356 357 362 361 359 359 363 361 354 358 360 356 358 358 354 355 351 355 353
323 333 334 337 337 336 340 341 340 341 338 337 335 340 340 339 338 341 340 334 334 336 336 336 337 337 338 338 339 339 339 339 339 340 341 342 343 344 345 346 346 346 350 353 357 358 359 360 361 359 358 359 360 361 358 358 357 359 359 360 359 360 362 360 360 358 361 358 352 352 348 348 348 349 353 355 359 357 356 357 360 362 360 359 358 357 358 361 359 357 356 357 356 348 347 353 351
328 326 332 336 341 339 344 342 342 339 338 336 341 342 337 336 333 340 337 337 335 335 336 338 338 339 339 338 340 339 339 339 340 342 343 344 345 344 345 346 347 349 351 353 355 358 360 359 362 359 357 357 357 359 358 357 360 358 359 361 360 358 358 356 356 357 357 351 354 352 350 350 347 349 355 357 357 359 362 355 358 358 356 357 359 359 360 357 357 356 359 356 355 355 350 351 350
326 328 334 337 340 341 342 340 338 339 340 340 340 336 335 338 334 339 334 335 334 335 338 338 338 339 339 338 338 340 340 341 341 343 345 346 346 346 347 348 348 349 349 352 355 356 358 360 360 358 359 360 358 358 357 358 358 357 359 358 358 360 359 356 356 358 357 356 354 355 355 348 348 350 351 355 359 358 359 356 359 355 358 360 361 356 359 360 357 357 360 358 359 359 350 352 351
330 332 337 340 341 341 340 340 335 337 337 340 338 334 337 333 341 334 332 335 335 336 337 337 337 337 337 337 339 340 341 341 342 343 344 346 347 346 345 347 348 347 350 353 355 357 358 358 357 358 359 360 359 357 359 359 359 359 359 359 361 360 357 355 356 354 354 354 353 355 352 350 350 351 355 361 358 358 358 356 357 358 357 358 359 358 358 357 357 357 358 360 356 355 352 357 353
334 333 336 339 341 342 339 337 337 337 337 340 334 333 337 342 337 329 338 337 335 335 336 337 336 336 336 337 339 341 342 342 343 345 345 346 346 346 346 346 347 347 350 352 354 356 357 356 355 359 359 361 359 357 360 360 361 358 358 357 359 357 355 356 354 351 350 354 361 364 360 358 354 356 359 361 361 358 358 356 357 359 356 357 358 357 361 361 358 358 359 358 361 359 356 354 348
335 336 337 340 341 341 338 338 336 339 336 338 339 334 339 337 335 329 338 340 337 335 335 335 335 336 336 338 340 343 343 343 345 345 344 345 345 345 345 346 347 347 349 351 355 358 356 355 356 358 358 359 359 358 361 360 359 356 357 357 353 355 356 354 352 352 352 355 360 363 366 361 363 361 361 360 360 358 358 360 357 359 357 358 362 359 360 363 362 361 359 360 359 359 356 355 359
334 335 329 333 338 337 340 338 337 336 337 344 337 334 332 332 328 335 341 340 339 337 334 334 334 335 337 339 341 343 344 345 345 344 344 347 348 346 345 348 347 348 351 352 355 355 355 355 356 357 358 360 358 356 356 357 356 353 354 353 355 353 354 353 352 352 354 358 362 367 368 369 368 363 366 363 362 360 358 358 359 361 362 362 362 360 361 364 362 358 359 359 360 358 354 355 349
334 336 331 328 330 330 339 341 339 335 340 346 340 318 324 330 334 339 342 341 339 337 333 333 334 335 337 338 340 343 344 345 344 345 347 347 347 347 345 348 348 349 351 353 353 354 355 355 354 354 355 354 355 354 355 352 352 352 353 352 356 353 352 350 352 354 355 358 363 367 367 369 367 368 366 365 368 361 361 361 359 360 361 361 361 364 360 359 358 360 357 355 355 354 353 356 348
324 329 329 322 318 319 334 335 335 330 341 342 341 318 321 328 335 341 340 343 338 335 333 332 332 334 336 337 339 342 344 345 345 346 347 347 347 348 346 348 349 350 352 351 352 353 353 354 352 352 353 353 353 353 352 352 353 350 351 353 353 353 352 351 349 351 352 356 362 364 366 366 368 368 368 370 360 361 358 358 360 359 363 365 361 359 362 361 363 360 358 355 357 351 352 356 351
327 320 315 321 316 324 334 336 333 328 336 341 336 319 320 327 333 341 342 340 340 333 332 332 332 333 334 336 338 342 343 345 346 345 346 347 348 346 347 347 350 349 350 352 353 353 353 353 352 352 352 352 353 353 353 354 351 352 352 353 354 354 351 350 349 351 355 355 359 364 368 369 368 370 371 368 361 359 356 358 360 362 362 363 360 360 365 361 362 359 361 357 353 348 352 351 352
320 316 317 313 319 322 324 335 338 335 335 339 335 320 323 326 331 339 340 340 338 335 332 333 332 333 333 334 337 340 342 343 345 345 346 347 348 347 347 346 350 349 350 352 352 353 352 351 352 350 351 350 352 352 354 354 355 353 353 352 350 353 349 351 352 357 358 359 359 361 368 368 370 370 369 368 367 358 358 359 356 358 364 362 363 360 359 361 361 353 358 361 360 356 347 344 349
314 319 315 319 315 317 316 328 333 334 333 328 333 326 327 328 332 338 341 342 339 337 333 334 333 333 334 334 334 339 341 343 343 345 345 347 348 348 347 351 350 351 352 352 353 352 351 351 350 351 351 351 353 354 357 355 356 355 354 354 359 354 354 355 356 356 356 357 359 363 367 365 368 369 369 368 370 361 361 361 362 363 363 362 362 360 365 362 363 360 355 357 359 358 350 349 347
310 313 314 316 318 319 317 320 327 329 329 325 326 326 325 330 333 338 340 341 339 335 335 335 333 333 334 332 333 338 341 342 344 346 346 347 347 348 348 349 350 352 350 352 353 353 352 352 352 352 351 352 355 357 358 359 355 357 355 356 358 356 359 355 356 356 355 356 361 365 367 367 367 370 367 366 370 360 361 364 365 363 363 361 364 361 360 362 364 358 358 359 360 357 353 352 350
313 316 314 315 312 314 315 322 330 329 325 326 324 322 325 330 334 336 339 337 340 338 336 334 334 333 334 333 332 336 340 340 345 347 348 348 346 348 347 349 348 351 351 352 354 353 352 354 354 353 353 352 356 356 357 354 352 356 352 354 357 357 357 356 359 358 356 357 359 361 368 366 367 370 370 368 369 366 361 363 367 366 363 361 364 361 362 361 359 357 355 355 359 356 355 356 353
316 315 315 315 315 316 325 328 330 337 328 326 326 327 326 329 333 335 336 336 334 337 333 333 335 333 333 332 332 334 339 340 345 347 348 348 345 348 347 348 348 350 353 352 352 352 351 355 355 354 355 355 356 353 354 351 350 354 355 350 350 353 357 357 356 357 357 356 360 363 367 363 369 369 369 372 366 364 367 367 369 367 366 364 364 363 360 360 363 365 357 362 354 353 352 351 343
312 313 313 313 316 313 319 320 332 335 328 321 325 326 324 327 332 336 337 334 331 336 335 334 334 333 333 333 332 334 339 343 344 346 347 348 346 347 346 348 349 347 351 351 351 352 352 353 354 354 356 354 353 351 352 353 357 357 353 352 351 353 355 354 357 357 354 359 366 364 367 367 371 371 372 372 371 368 366 366 368 367 367 363 362 362 363 363 363 362 357 358 358 352 352 350 345
313 311 312 312 314 318 324 331 328 334 327 320 327 324 326 329 332 335 335 334 335 336 339 332 337 334 333 332 333 335 336 340 341 345 346 347 347 346 345 347 347 348 349 349 351 352 352 353 354 355 355 352 352 352 355 357 358 358 355 352 352 353 356 357 355 356 356 358 362 365 368 368 370 370 370 368 367 367 366 366 364 368 366 362 362 364 359 359 359 357 360 350 351 354 352 351 352
309 309 308 307 317 312 312 320 329 328 324 321 325 325 326 330 332 335 337 336 337 338 335 336 335 338 333 331 332 334 335 339 341 343 344 345 346 347 345 345 347 347 349 348 349 350 350 354 355 356 355 354 354 355 357 359 359 360 359 358 356 356 354 358 359 360 359 358 359 363 368 366 369 363 366 364 364 368 367 368 365 365 365 364 363 362 360 359 357 361 355 354 355 352 351 352 353
310 309 309 310 312 312 313 316 323 325 327 330 325 322 322 326 326 330 335 336 336 337 337 337 339 338 339 335 333 334 336 340 341 342 343 345 345 345 345 346 347 346 347 347 348 349 348 351 356 357 356 355 355 357 359 361 363 360 363 361 362 360 359 358 358 355 359 361 360 360 363 367 366 364 364 366 365 368 369 370 369 367 365 364 361 360 359 361 358 362 356 364 360 350 344 350 353
308 310 310 311 314 313 315 318 317 316 319 329 320 311 313 323 325 327 332 331 331 336 336 336 337 338 339 333 332 334 335 341 342 341 343 345 345 347 346 346 345 345 347 347 348 348 349 352 356 358 357 356 354 358 361 361 360 358 359 355 352 352 351 348 349 349 351 352 363 357 362 361 362 367 368 367 367 364 367 368 369 369 367 361 362 363 363 357 353 367 360 359 358 352 353 346 348
305 309 313 312 312 314 315 315 315 309 307 319 326 309 307 324 322 328 330 329 328 334 333 333 337 338 336 335 333 332 333 337 341 342 343 343 345 347 347 346 344 344 346 349 349 348 349 352 356 358 357 357 355 360 363 361 359 358 357 353 352 350 348 348 354 352 352 350 358 360 361 363 364 364 365 368 368 370 372 371 369 367 365 365 362 360 359 356 355 358 363 363 360 358 363 352 351
304 313 313 314 313 313 314 315 314 312 320 323 326 321 311 308 318 330 331 328 328 329 331 334 337 338 336 337 333 334 334 336 339 340 343 344 346 347 347 346 344 344 345 347 349 348 350 354 356 357 357 358 357 359 361 362 358 358 358 353 352 348 348 352 354 356 356 359 356 359 358 360 360 365 365 371 369 367 371 370 370 369 365 367 362 363 361 359 361 368 361 364 361 361 361 361 352
306 312 314 313 313 315 315 314 313 315 314 309 318 322 314 310 317 328 330 324 324 325 329 332 335 337 336 337 335 335 335 336 337 339 341 343 345 347 348 347 345 345 344 345 348 351 352 353 356 358 357 360 356 359 359 360 361 359 358 354 352 354 351 355 357 360 359 361 359 361 361 360 359 362 368 364 367 370 365 373 371 371 367 367 359 360 360 360 362 364 364 361 367 368 366 359 358
308 310 310 314 315 315 315 312 311 312 310 307 311 319 308 308 316 324 327 325 322 324 329 331 335 335 336 337 338 336 335 336 337 339 341 343 346 347 348 349 349 345 344 346 347 350 352 354 356 357 359 359 362 361 360 359 361 361 357 356 355 356 355 357 356 357 361 361 360 365 362 365 360 358 361 367 368 369 367 370 369 366 363 365 361 364 363 358 360 362 360 363 365 361 362 360 360
311 310 310 310 311 312 314 313 311 309 302 306 314 317 315 304 315 321 321 322 325 326 330 333 337 337 338 340 338 336 334 335 336 337 341 344 346 346 348 347 349 347 345 345 346 348 351 355 358 356 360 359 363 363 360 359 360 361 358 358 357 356 358 360 359 360 361 361 361 360 362 361 361 360 360 360 365 362 366 369 366 366 364 367 361 365 362 360 363 362 361 363 366 366 363 363 357
309 307 308 308 308 311 309 309 311 302 300 309 320 319 318 303 313 319 326 329 329 329 327 330 331 334 337 338 339 338 335 334 335 336 339 342 345 345 347 346 348 348 346 345 345 347 350 353 356 358 360 361 363 365 361 358 358 359 359 358 359 360 363 358 361 361 360 363 358 360 362 362 362 360 363 361 360 361 366 365 367 367 365 366 365 364 366 363 361 359 360 363 365 367 365 363 361
308 307 308 303 301 303 301 305 300 300 300 312 319 320 313 311 314 321 324 326 330 334 332 329 331 335 338 339 338 338 336 334 335 336 339 339 342 342 343 346 348 348 347 347 345 346 349 352 355 356 357 360 362 361 361 361 358 359 358 357 359 362 363 363 363 362 361 361 360 359 364 361 361 362 359 360 360 362 367 367 368 366 371 368 370 370 370 365 365 362 364 360 364 364 365 367 363
308 306 305 302 298 297 294 299 302 301 306 316 314 320 308 314 315 320 322 328 331 334 334 332 331 333 336 337 340 339 336 334 334 335 337 339 342 342 344 344 348 349 348 346 346 347 349 350 356 355 357 359 361 361 359 360 359 360 360 359 359 359 361 361 363 360 360 360 360 361 360 358 359 357 358 359 360 361 363 366 369 368 372 373 369 372 369 371 371 366 365 367 362 367 368 363 363
309 311 307 305 303 298 296 298 297 300 304 310 320 311 305 308 313 320 324 329 332 335 336 335 334 335 338 339 340 340 336 335 334 335 336 337 340 343 342 345 348 350 349 348 346 349 352 351 355 356 358 359 360 360 360 359 358 360 360 358 360 360 358 358 359 359 360 360 359 359 361 359 357 359 359 361 362 364 364 367 369 371 371 369 371 368 363 366 375 371 365 365 364 364 363 365 363
312 311 311 305 303 308 299 303 303 301 302 303 310 307 314 315 325 325 325 327 330 335 335 334 332 334 337 338 337 335 335 334 334 335 336 338 341 342 343 344 348 349 352 350 348 349 350 353 356 357 358 358 359 360 360 359 359 360 362 360 359 362 362 360 360 362 363 363 363 361 362 362 363 363 363 366 361 363 365 366 370 367 371 368 368 367 367 367 372 368 369 371 369 363 363 365 365
311 309 304 306 312 309 305 306 307 306 305 300 310 309 313 320 322 325 324 324 329 331 333 331 330 332 337 335 334 336 338 335 335 335 336 338 340 342 344 344 346 348 349 350 352 352 353 356 355 356 359 359 359 360 359 361 362 361 361 360 358 359 358 359 357 360 359 360 363 363 361 360 361 363 362 363 365 364 366 366 366 364 367 369 368 369 367 367 370 365 363 367 365 361 364 367 364
311 305 310 314 315 313 308 301 306 305 299 301 308 307 306 307 304 322 324 322 327 328 330 331 330 330 332 333 335 338 339 337 336 337 338 338 341 343 344 345 347 347 347 350 353 354 355 355 356 356 357 357 356 357 356 358 361 361 363 361 359 360 357 357 359 359 358 361 360 361 362 360 361 360 360 360 362 365 365 367 367 365 367 367 367 366 366 367 373 366 364 367 364 366 365 368 364
312 310 316 307 305 301 309 306 297 296 296 299 303 306 308 309 310 319 318 319 322 325 329 330 329 328 328 332 336 338 339 337 336 336 337 338 340 342 345 345 347 349 350 349 351 353 355 355 355 355 355 356 354 354 355 357 358 357 358 360 359 360 360 359 358 359 361 359 358 359 357 359 360 363 362 365 366 364 367 366 366 365 365 364 367 364 367 369 372 368 364 364 365 368 365 361 364
318 319 313 315 311 308 304 305 307 303 298 299 300 306 304 315 315 317 318 322 321 321 327 330 331 330 329 331 334 338 337 339 337 336 337 337 339 342 344 345 346 347 347 348 351 350 351 354 354 355 354 356 355 353 354 355 355 356 356 357 360 363 362 360 360 359 358 359 360 359 359 356 359 360 362 363 363 363 363 363 363 359 360 362 363 362 363 365 365 365 364 359 360 368 367 365 362
309 310 308 311 311 315 311 312 306 302 300 300 298 297 304 318 321 323 324 326 325 323 324 330 333 333 332 331 332 338 339 338 338 339 338 338 339 341 344 346 346 346 347 348 349 350 350 351 352 354 354 352 352 352 353 355 355 356 358 357 356 358 357 358 359 360 360 360 360 361 359 358 361 360 362 362 362 361 364 362 362 362 358 360 363 363 362 364 366 368 366 364 362 365 368 362 363
311 308 309 310 308 306 302 299 308 307 302 298 298 297 306 318 329 325 326 326 327 328 326 325 333 333 335 337 336 339 338 339 340 337 338 339 341 342 345 346 346 347 348 348 347 349 350 352 350 351 350 351 351 353 357 357 357 357 357 356 357 356 357 357 356 358 359 359 360 359 361 361 359 361 362 361 363 362 362 362 361 360 362 361 364 368 364 363 363 363 366 363 361 361 362 362 360
Wind_Speed
9 10 7 7 3 1 4 2 3 5 1 4 6 6 9 10 11 12 12 9 9 6 10 9 8 7 7 9 12 11 7 8 4 5 6 7 9 10 9 11 12 12 12 11 10 9 10 11 13 13 13 14 13 12 13 14 14 12 11 11 10 9 9 8 8 8 8 7 6 6 7 9 13 15 12 13 15 16 15 14 14 14 15 17 17 14 13 15 10 14 14 13 9 12 12 14 13
9 8 6 2 1 2 2 4 4 1 4 9 9 9 11 10 11 10 11 9 8 9 9 10 10 7 9 13 12 13 14 12 10 11 10 11 11 9 10 10 11 11 10 10 10 9 10 11 11 12 12 13 14 13 14 13 13 13 11 11 10 10 10 10 9 11 10 9 7 8 8 11 12 12 15 15 15 16 14 14 13 14 15 15 16 17 12 12 14 8 7 8 6 11 13 14 13
7 8 4 2 4 4 2 1 1 2 4 8 9 9 9 11 11 11 11 12 12 11 11 9 8 6 10 9 8 8 11 13 14 14 11 13 12 8 10 10 10 11 11 8 9 9 8 10 11 10 11 12 13 14 14 14 14 14 13 12 10 10 10 9 10 12 10 9 10 7 5 10 13 14 15 14 14 15 14 14 13 14 16 15 14 16 13 9 12 10 6 5 8 9 11 14 12
11 5 4 1 3 3 3 5 4 3 5 8 8 8 11 12 12 13 12 12 11 10 7 9 8 5 8 11 13 12 12 11 12 13 10 11 7 11 10 11 10 10 9 6 7 9 9 11 11 9 8 11 12 13 14 14 13 13 13 13 10 9 10 8 10 13 11 8 12 7 7 10 14 14 14 13 14 13 14 14 13 13 15 15 14 14 13 8 9 12 7 8 8 8 11 13 13
8 5 3 2 4 3 0 2 2 3 6 6 9 10 13 13 14 13 12 11 10 9 7 9 9 10 10 9 9 7 10 14 13 10 9 11 12 11 10 10 9 11 9 8 7 9 11 13 10 10 8 9 10 10 11 12 12 12 12 12 9 8 10 9 9 12 13 8 9 9 9 10 13 14 14 14 13 13 13 12 12 13 14 14 15 14 14 11 10 10 10 6 9 10 10 12 12
8 1 6 1 3 4 4 2 2 4 5 11 10 11 14 13 14 13 13 11 10 8 5 7 8 10 11 12 9 10 9 8 10 9 11 12 13 12 11 9 8 8 11 11 8 7 10 12 11 8 7 9 9 10 10 10 10 11 11 11 9 7 10 7 6 11 12 9 7 8 9 11 13 13 13 13 13 12 12 12 12 12 13 13 15 15 13 12 9 9 13 4 6 8 9 10 11
4 2 3 3 5 2 0 2 3 1 10 10 11 13 13 13 13 13 13 11 9 7 5 10 11 13 10 10 13 11 13 12 9 10 10 13 13 12 11 9 8 9 9 8 10 10 12 11 10 8 7 8 10 10 10 10 11 11 11 11 8 6 8 10 9 9 12 10 7 9 5 8 11 12 13 13 12 12 11 11 12 12 13 14 15 15 13 12 7 7 11 5 6 8 8 9 11
2 1 3 2 2 2 1 1 4 6 8 12 13 15 14 13 12 12 11 9 9 6 6 7 10 9 13 11 11 9 9 11 13 14 15 12 12 12 10 9 8 9 9 11 10 10 12 11 9 8 8 9 10 10 11 10 11 13 13 10 9 7 6 9 7 8 11 11 11 12 9 6 10 11 12 12 11 11 11 12 13 12 13 14 15 14 11 8 8 6 8 7 6 7 8 10 10
2 2 2 1 0 2 1 4 3 9 12 12 13 13 12 11 11 11 10 8 9 7 9 12 8 8 11 15 11 11 11 14 14 14 13 13 12 10 7 9 8 8 11 11 9 10 9 10 9 9 8 9 10 10 9 12 11 12 14 14 12 8 6 7 10 9 9 11 12 14 13 10 11 10 11 12 11 10 11 12 13 12 11 12 15 14 10 6 6 7 8 7 6 6 9 10 10
2 1 2 0 2 1 3 7 9 6 11 13 13 12 10 10 10 8 10 9 8 8 11 13 9 12 13 14 12 10 11 14 15 14 12 12 11 9 9 8 7 8 11 11 9 8 8 10 9 9 9 9 10 13 12 11 13 14 13 14 14 12 10 10 12 11 11 11 11 10 12 11 12 11 10 11 12 10 9 11 13 12 10 10 12 14 10 6 5 8 7 5 4 5 7 7 8
4 5 1 2 2 1 7 8 10 9 13 12 12 9 8 9 8 9 8 9 9 8 8 10 12 13 12 13 9 10 13 14 14 14 12 11 9 8 8 7 7 8 10 13 7 8 9 8 11 9 9 9 9 10 10 10 12 14 15 18 18 16 12 13 12 13 14 12 10 11 11 12 12 12 10 10 11 11 10 10 12 12 11 10 10 11 10 8 8 7 6 4 4 6 6 6 8
4 4 2 4 1 4 5 9 11 12 13 12 11 9 5 9 8 9 9 9 7 8 8 5 10 12 12 11 9 11 14 14 13 12 11 10 8 8 8 7 7 8 13 11 10 8 8 9 7 8 9 9 9 9 9 10 9 13 13 16 16 18 16 12 13 12 14 13 11 9 12 12 12 12 11 10 10 10 10 10 11 11 11 10 9 10 9 6 8 7 5 4 3 3 5 7 7
5 4 2 5 2 3 5 7 10 13 12 10 11 7 6 8 8 8 8 9 7 8 8 8 12 8 11 10 10 12 13 13 12 12 11 8 8 7 6 7 7 7 16 10 9 6 6 7 8 7 8 9 10 10 11 9 11 11 11 14 16 16 18 16 14 14 13 13 11 8 10 11 12 13 11 11 11 10 9 10 10 10 11 11 10 6 7 7 7 6 5 4 4 4 3 6 6
3 3 2 1 3 2 3 7 11 9 8 10 8 9 7 7 8 7 8 10 8 7 6 9 7 11 12 12 10 11 11 13 13 12 9 9 8 7 8 7 8 7 13 12 12 7 3 7 4 8 8 8 8 9 11 10 10 12 11 14 14 14 16 16 15 15 14 13 11 9 11 12 11 12 12 11 11 10 9 9 9 9 9 10 9 7 4 8 8 8 6 5 4 4 5 5 5
6 1 3 3 2 1 4 8 9 8 9 9 10 8 8 8 8 7 7 10 9 6 9 3 8 7 9 11 10 10 12 14 13 11 10 8 9 8 9 7 6 7 8 16 7 8 10 10 10 7 5 5 7 8 5 8 11 11 11 13 15 15 14 15 16 15 15 14 13 12 14 14 13 13 12 12 11 11 10 8 8 7 8 8 6 6 7 8 7 5 5 6 5 5 4 5 5
4 3 2 2 4 7 3 8 8 8 10 11 10 10 10 8 6 7 6 5 7 7 2 7 3 2 12 10 13 15 15 14 12 11 10 9 8 8 8 7 6 6 4 15 10 8 5 4 3 10 12 6 5 7 7 7 9 10 11 12 15 15 14 14 14 15 16 16 16 15 15 13 13 11 13 11 12 11 9 7 8 8 7 7 7 7 7 7 5 6 5 5 5 6 6 6 7
3 6 2 3 2 8 7 4 6 6 9 12 11 10 10 9 6 7 6 8 9 8 3 6 7 5 9 12 17 16 16 14 12 12 11 8 7 6 6 5 6 6 4 7 12 9 9 10 7 6 7 12 9 8 7 7 8 9 10 12 15 14 15 15 12 17 16 15 14 13 13 8 10 10 10 10 12 9 9 9 8 8 8 7 7 6 6 5 5 6 6 6 7 8 9 9 9
6 3 4 3 2 3 3 3 1 7 10 12 11 9 10 10 8 7 7 8 8 7 7 7 7 11 14 17 17 16 15 14 13 12 10 8 6 6 5 6 6 6 6 6 5 6 5 8 7 5 9 12 8 6 7 6 7 9 8 10 10 12 14 14 15 12 12 10 12 9 7 8 8 8 9 11 8 9 9 10 9 9 8 7 6 5 5 5 6 7 7 8 9 11 12 8 9
5 5 4 2 4 3 4 1 6 9 5 11 10 8 8 10 9 7 7 8 8 9 9 10 13 15 16 17 17 16 15 14 13 11 11 10 7 7 5 5 5 6 6 6 5 6 7 9 7 4 9 11 8 5 6 7 8 7 8 8 9 12 10 12 9 11 9 10 8 9 5 4 7 7 7 8 8 10 10 10 10 9 7 6 5 5 6 7 8 9 10 11 12 13 9 9 8
3 4 3 2 2 3 2 1 8 8 5 9 10 8 9 9 8 6 7 8 8 9 10 12 13 15 17 17 17 16 14 13 12 10 10 8 8 6 6 6 6 5 6 5 6 6 6 9 9 7 8 8 11 8 7 7 6 6 6 7 9 8 9 8 9 8 8 8 8 7 9 8 8 7 11 14 12 8 8 9 9 7 6 5 6 6 8 10 11 12 12 13 11 7 7 6 3
4 4 5 5 1 1 3 2 4 10 8 10 9 8 10 8 8 6 8 8 8 7 10 10 13 16 17 17 16 15 14 13 11 10 9 8 8 5 5 5 5 5 5 5 6 6 7 8 9 7 7 8 6 11 8 8 8 7 6 7 7 7 8 8 8 8 7 7 6 7 9 9 9 8 8 9 8 7 7 6 6 5 4 5 9 6 7 7 9 7 7 9 8 7 5 1 2
4 5 4 8 3 3 2 3 3 3 10 8 9 9 10 9 7 7 7 5 6 7 11 12 13 16 17 17 16 14 14 12 11 10 10 9 9 6 6 7 7 7 7 5 7 8 8 8 11 9 6 9 10 7 11 9 10 10 10 9 9 8 9 7 7 6 7 6 8 8 8 9 8 7 6 6 7 7 4 3 2 3 6 6 6 7 5 5 7 4 5 4 3 3 3 4 2
4 3 5 5 6 3 3 2 4 7 8 9 9 7 10 9 8 6 6 6 6 8 9 12 14 15 16 15 14 14 13 12 11 10 9 9 8 7 8 6 7 6 6 6 7 7 7 8 8 10 9 7 5 7 9 8 6 7 7 7 8 7 7 8 7 7 7 8 7 8 9 8 8 7 7 7 6 7 8 5 7 7 5 5 7 4 3 3 2 2 2 1 2 2 5 5 3
5 4 8 7 7 5 3 5 4 7 8 8 7 10 8 11 11 5 7 5 7 9 9 13 15 15 15 15 13 13 12 11 11 10 9 9 8 7 7 7 6 8 6 8 8 7 7 10 9 8 8 8 10 8 7 7 9 4 7 7 7 8 8 8 8 7 6 6 5 6 6 7 7 7 6 6 5 5 3 8 8 6 6 4 4 4 3 3 1 2 1 1 1 1 2 5 6
3 5 4 5 5 2 6 2 6 3 10 4 8 7 7 10 5 8 8 9 10 10 11 15 15 15 15 15 14 12 12 11 10 10 9 7 8 8 7 6 7 7 8 8 7 8 8 8 9 10 8 9 8 8 8 7 8 9 8 7 7 7 6 7 8 8 7 6 5 4 5 7 7 7 6 5 5 5 2 7 4 5 4 4 4 4 3 2 1 2 1 2 0 1 4 4 1
3 6 1 5 6 7 6 6 3 0 5 8 8 10 10 11 4 7 6 8 10 11 12 15 15 14 14 14 13 12 11 11 10 10 9 8 8 8 8 7 7 7 9 8 8 8 8 9 10 9 9 8 7 7 7 7 7 7 7 7 7 6 7 8 9 7 7 7 5 4 4 5 6 6 6 5 4 6 4 6 5 4 4 3 3 4 3 3 3 2 1 1 1 2 3 1 1
9 7 8 6 7 8 8 2 1 5 10 7 8 9 8 6 7 5 3 7 10 11 13 15 14 14 13 13 13 12 11 11 10 10 8 9 8 8 8 8 6 9 9 9 9 8 8 8 9 9 9 7 7 7 7 7 7 7 7 7 6 7 8 7 6 7 8 7 6 5 4 4 5 5 5 4 4 4 5 5 4 4 4 3 3 5 3 2 1 2 1 1 2 1 2 2 4
9 5 9 7 7 7 7 3 5 7 5 4 3 10 4 8 2 6 7 8 9 11 13 14 14 13 12 13 12 11 11 10 8 9 10 10 8 8 8 7 8 9 9 8 8 9 9 10 10 9 9 7 7 8 8 7 7 7 7 6 7 7 6 6 6 6 7 7 7 5 4 4 4 5 4 4 4 4 5 4 3 3 4 3 2 4 2 0 1 2 4 1 1 2 3 2 3
6 8 3 4 4 6 4 5 3 6 3 2 9 6 9 6 7 6 5 8 9 10 13 14 14 12 12 12 12 10 10 9 8 8 9 7 8 7 9 8 8 8 7 9 9 10 10 10 10 10 9 8 8 9 8 7 7 7 6 6 6 6 5 6 6 7 7 7 6 5 5 4 4 4 3 2 3 3 4 3 5 3 3 4 1 3 2 2 3 3 3 3 3 2 4 4 5
4 6 5 4 2 5 5 4 1 4 1 5 2 5 8 9 7 8 7 8 9 10 13 14 12 12 11 12 11 11 10 10 9 9 8 8 8 9 9 10 10 8 7 7 10 10 9 8 8 9 9 9 9 8 7 7 7 7 6 7 6 5 6 7 6 7 7 6 6 6 5 4 3 3 3 2 4 5 4 2 4 4 3 2 3 1 1 1 3 1 3 2 4 4 2 3 3
5 10 4 1 1 4 4 3 5 4 1 4 1 2 3 11 8 9 10 8 11 11 12 14 13 12 12 11 11 10 12 9 9 9 10 9 9 9 9 10 9 9 7 9 10 10 10 9 8 8 9 10 9 8 8 7 7 7 7 7 6 5 6 7 7 7 7 7 6 5 5 4 4 3 3 2 2 2 5 4 3 4 2 1 3 2 4 2 1 1 4 5 3 2 4 3 3
5 4 2 1 3 4 6 4 4 6 2 4 4 6 4 5 10 10 9 9 11 13 12 13 13 12 13 11 11 10 11 10 11 10 11 10 9 10 9 10 9 10 9 8 9 9 10 10 10 10 10 10 9 7 7 7 6 7 7 6 6 7 7 7 7 7 7 6 6 6 5 4 3 3 2 1 3 2 4 4 4 3 2 1 2 1 2 2 3 2 4 4 2 4 4 4 3
8 7 3 4 6 5 5 5 6 4 3 5 10 1 5 4 4 9 11 12 13 7 10 10 14 14 13 12 11 11 11 12 11 11 11 10 10 10 10 10 8 10 11 10 10 9 9 10 9 12 12 11 10 9 7 7 6 7 7 7 7 5 5 5 5 5 6 5 4 6 5 4 4 3 2 0 4 2 3 4 4 4 1 2 1 1 1 2 1 4 2 5 6 8 6 2 3
5 3 3 1 2 3 2 4 5 2 5 6 9 7 4 2 5 8 6 8 11 7 10 13 12 12 12 12 11 10 11 10 11 12 12 10 10 11 10 10 10 9 11 11 10 10 10 10 10 11 11 11 9 8 7 6 6 7 6 6 6 6 6 6 5 5 8 6 3 4 4 4 4 3 2 1 2 4 4 3 4 2 1 1 0 1 3 3 3 3 3 2 1 2 5 3 3
4 1 2 2 4 4 3 3 7 6 4 5 7 8 6 8 8 7 10 11 13 12 9 11 12 13 12 11 12 11 12 11 12 9 13 11 12 12 11 11 11 10 10 12 10 9 10 8 9 10 10 10 9 8 7 6 7 6 6 6 5 5 4 5 3 4 5 8 6 6 4 4 4 3 3 2 2 1 3 3 2 1 2 1 1 1 3 3 3 4 4 2 3 2 2 4 4
3 5 1 2 1 3 2 5 8 14 13 10 12 9 11 11 9 9 6 4 9 10 5 8 12 13 12 12 12 12 11 10 11 12 14 12 11 11 11 11 10 10 10 11 11 10 9 9 9 8 9 10 9 8 7 7 6 5 7 6 5 4 4 4 4 4 5 8 4 6 4 4 4 3 3 2 2 1 2 3 2 1 2 2 2 2 3 3 2 2 3 3 3 2 2 2 2
7 11 7 4 3 2 4 2 2 3 6 7 7 6 7 9 9 8 8 7 8 7 7 13 11 11 12 12 12 13 11 13 12 13 13 13 13 12 12 11 11 11 11 11 11 11 10 9 10 10 8 9 8 8 7 7 7 6 5 6 6 5 4 5 4 4 3 6 6 6 4 4 4 4 3 2 3 2 2 3 2 1 1 2 1 2 3 4 3 3 1 2 3 2 2 2 2
8 8 9 4 4 2 4 3 3 2 2 1 5 3 7 9 9 8 9 10 12 9 8 12 14 12 12 12 13 13 12 10 10 12 13 14 12 13 12 11 11 12 11 12 12 11 11 11 11 9 9 9 8 8 6 7 5 5 5 5 4 5 5 4 4 4 4 7 5 5 3 6 4 3 3 1 2 3 2 3 2 1 1 2 1 1 1 1 3 3 4 1 3 8 6 4 4
9 9 9 8 3 6 3 2 3 1 4 4 5 3 5 8 8 9 10 10 9 8 4 3 12 12 11 12 12 12 13 13 15 13 14 13 15 15 12 11 11 12 13 13 12 11 11 10 9 9 9 9 8 8 6 5 5 5 4 5 4 4 4 4 5 4 5 6 6 4 4 4 3 3 4 3 3 2 3 2 3 3 1 2 1 2 1 1 2 2 1 4 5 5 3 7 1
9 8 7 8 8 8 5 3 5 4 5 1 9 2 3 5 5 8 9 9 7 6 8 10 9 12 11 13 13 13 13 13 14 15 15 14 14 13 12 12 12 11 11 12 12 13 11 9 10 9 9 8 8 8 7 5 6 6 3 3 4 3 4 3 5 4 4 7 6 6 4 4 4 5 4 4 4 3 1 1 1 2 2 2 1 1 2 1 2 4 4 4 4 2 3 3 10
9 10 8 9 6 2 4 3 3 3 6 5 8 6 5 7 7 7 8 7 3 3 5 9 8 6 13 12 13 13 14 14 14 14 14 14 15 14 13 13 13 12 12 12 12 12 9 12 11 10 9 8 8 8 7 7 5 5 3 4 4 3 3 4 4 5 4 4 5 5 6 5 4 3 4 3 6 2 1 1 1 1 1 2 4 2 2 5 2 2 2 2 3 4 3 2 5
9 11 10 8 5 10 3 4 7 6 5 2 4 1 4 7 9 9 8 8 6 5 8 10 9 3 11 13 14 14 14 11 14 15 14 15 14 14 14 14 14 13 12 12 12 13 12 12 12 10 9 8 9 9 8 7 6 6 5 5 5 4 5 6 5 6 5 5 7 5 6 7 6 4 4 3 4 4 3 2 1 2 3 2 2 2 1 0 3 6 4 4 2 1 3 4 1
8 5 5 10 10 3 3 4 6 5 7 4 3 6 3 6 6 9 10 11 10 9 10 11 10 7 7 14 13 14 15 15 12 12 14 14 14 15 15 14 14 14 13 13 12 13 13 13 12 11 9 8 9 9 9 7 7 6 6 7 5 5 5 5 4 4 5 4 7 3 5 5 5 6 6 4 4 3 3 2 2 3 1 2 2 2 4 5 2 1 2 1 2 2 3 2 5
10 2 8 3 3 5 7 6 8 9 2 4 5 6 8 6 4 8 11 11 10 11 12 12 11 12 11 13 14 14 15 15 13 14 14 14 14 15 15 15 14 13 14 14 12 12 13 13 13 12 9 8 9 10 9 7 7 6 6 6 6 6 5 4 4 3 4 2 6 5 4 5 5 3 4 5 4 4 4 4 2 2 2 1 2 2 3 2 6 3 1 2 1 2 3 2 4
10 1 3 8 6 9 4 6 10 8 7 5 8 12 8 3 1 8 11 10 12 12 14 14 14 14 15 13 15 15 16 16 15 14 15 14 15 15 14 15 14 15 14 14 13 12 13 13 13 12 11 9 9 11 10 9 7 7 6 6 4 4 4 4 4 3 3 2 3 2 2 5 5 4 2 6 5 5 4 4 4 3 4 2 5 2 4 3 1 2 1 2 3 3 2 2 3
10 15 6 5 5 7 6 8 9 9 7 10 8 7 7 3 8 7 9 9 12 14 15 16 16 16 14 14 17 16 16 14 15 15 14 15 14 14 14 15 15 13 13 14 14 13 13 13 13 13 12 10 9 11 10 10 8 7 7 6 6 4 4 3 4 4 3 3 4 3 3 1 4 5 5 3 5 5 5 4 5 5 3 5 2 1 3 1 2 4 3 1 2 4 2 3 3
14 12 8 9 10 9 9 9 9 8 11 11 3 4 5 6 6 8 9 11 13 12 11 12 14 14 15 17 18 15 15 15 14 14 14 14 14 13 14 15 14 14 13 14 13 14 14 13 14 14 13 10 11 11 11 11 10 8 7 7 7 6 5 4 3 4 4 4 4 5 5 4 3 4 5 6 5 6 5 5 3 4 4 4 2 2 3 4 3 6 3 2 2 3 3 3 4
11 7 8 8 10 8 8 8 8 9 11 9 12 13 13 10 2 3 9 9 12 13 15 16 16 17 16 15 15 14 16 16 15 15 15 15 14 14 13 13 15 15 14 14 13 14 14 13 14 14 13 12 11 11 11 11 10 9 8 9 8 7 6 5 5 5 5 5 5 4 4 3 4 4 4 5 5 6 5 4 5 4 2 2 3 3 1 2 1 3 1 1 2 3 3 3 4
8 8 9 10 7 5 7 8 11 10 10 5 9 4 7 10 3 9 13 10 11 13 12 15 17 18 18 17 17 15 15 17 15 14 14 14 14 15 15 14 14 13 13 15 14 14 14 14 15 15 14 13 12 12 12 12 11 10 9 9 8 7 6 5 5 5 5 5 5 5 5 5 5 4 5 5 5 5 5 4 3 3 2 2 1 2 0 1 3 4 1 3 1 2 3 3 3
7 9 8 8 9 8 8 8 7 9 9 10 3 11 10 3 5 6 6 10 9 13 14 13 15 17 19 18 14 14 17 17 16 16 15 14 14 14 14 14 13 12 13 14 14 13 13 13 15 15 14 13 12 12 12 12 11 10 10 9 9 8 7 6 5 6 6 5 5 5 6 6 6 6 5 5 4 6 6 5 4 4 2 2 2 2 2 2 1 4 2 2 5 0 3 4 5
7 9 7 7 9 8 9 7 10 8 6 4 1 6 5 3 4 3 4 8 10 11 14 13 12 14 14 14 14 15 18 17 16 16 15 16 15 15 14 14 13 13 13 14 12 13 12 13 14 15 14 14 13 12 12 12 11 10 10 9 9 8 8 7 7 6 6 6 6 6 5 4 6 5 4 5 5 4 5 4 5 4 5 4 4 4 4 4 3 3 3 3 5 3 4 4 5
6 9 10 10 11 8 11 8 7 5 7 6 3 3 3 2 6 2 1 5 10 12 13 15 13 10 10 10 13 17 18 16 17 17 16 17 16 16 15 14 13 13 13 12 13 12 12 12 14 14 15 14 13 13 12 12 11 10 10 10 10 9 7 8 7 6 6 6 6 6 6 5 3 4 4 4 5 5 5 5 5 5 4 5 5 4 4 3 4 3 3 4 4 4 4 4 5
3 9 11 5 8 13 11 12 8 9 5 8 8 7 8 5 9 3 2 2 9 10 12 14 13 11 12 11 7 6 13 15 16 16 16 16 16 16 14 15 14 14 13 13 12 13 13 12 13 14 14 14 14 14 13 12 11 11 11 11 11 10 10 10 9 9 9 8 6 6 6 7 6 5 5 6 5 6 5 5 5 6 6 4 4 4 4 5 4 5 5 4 5 5 4 4 4
2 4 9 5 8 10 8 7 5 5 8 6 6 8 3 7 3 9 7 4 6 8 11 14 12 11 10 11 9 9 12 17 16 16 16 17 16 16 15 14 14 14 14 14 13 12 12 11 12 14 14 15 15 14 14 13 12 12 11 12 11 11 10 11 9 9 9 8 8 7 7 6 6 7 6 5 7 7 6 5 5 4 4 4 4 4 5 5 5 5 5 4 5 5 4 5 5
10 1 2 7 1 9 7 7 11 10 9 5 8 13 8 7 2 4 7 3 9 5 9 12 15 14 12 10 12 10 14 18 16 17 16 16 16 16 15 15 15 14 14 14 13 12 12 12 13 13 14 15 15 14 14 12 12 10 10 11 12 11 10 10 9 8 8 8 8 8 8 7 7 6 6 5 4 6 6 6 5 6 6 5 4 5 3 4 5 5 5 5 5 6 5 5 6
9 4 6 5 5 4 4 4 9 8 8 3 7 8 5 6 5 2 6 2 1 9 13 11 13 15 13 11 12 11 9 15 15 15 15 16 17 17 16 16 15 14 14 14 14 14 15 14 13 13 14 14 14 15 14 13 13 12 11 12 11 11 10 9 9 10 9 8 8 8 9 9 7 7 7 7 6 6 6 7 8 7 7 7 7 6 6 6 6 5 5 5 4 4 5 5 5
9 8 6 6 6 2 4 2 4 8 6 5 7 9 0 3 1 3 3 4 3 5 5 12 10 12 14 13 12 11 10 9 11 13 15 16 17 17 17 15 15 14 13 13 13 14 13 13 13 13 14 15 15 14 13 12 12 12 11 12 13 12 12 11 11 10 10 9 8 8 8 7 8 7 7 8 8 8 7 6 7 6 8 6 6 4 5 4 5 5 5 5 6 4 5 6 5
5 6 6 5 6 8 8 8 11 12 8 5 6 8 3 3 3 3 3 9 6 4 2 8 11 11 11 11 10 10 12 14 12 14 16 16 16 16 16 14 14 14 14 14 13 13 13 14 13 14 14 13 14 13 10 10 10 11 12 11 11 11 11 11 11 11 10 9 9 8 8 7 8 8 7 7 8 8 7 6 6 6 5 4 5 5 6 6 6 6 7 6 7 7 6 6 6
Wind_Direction
198 208 203 223 213 295 258 224 236 171 247 124 106 92 93 97 104 109 105 132 97 83 87 89 86 85 30 66 86 93 71 45 34 323 90 116 142 137 128 131 128 130 124 127 124 129 125 114 113 112 116 121 120 116 114 114 113 116 121 115 116 111 109 101 97 101 94 82 67 102 83 101 103 117 108 107 98 100 104 100 103 102 96 89 91 73 76 83 54 25 28 63 82 94 97 92 87
203 210 234 114 223 257 269 204 274 196 194 101 86 106 106 110 109 105 108 87 93 113 106 81 74 55 71 94 112 97 65 59 66 83 104 127 139 136 134 141 141 134 121 125 130 131 116 106 104 105 111 116 123 123 119 114 117 119 119 120 118 113 112 110 111 110 102 99 102 93 112 110 107 106 107 108 106 106 106 103 104 101 96 94 90 88 75 76 83 63 69 46 76 81 88 92 94
193 203 207 178 241 236 260 254 258 313 154 104 102 99 126 105 99 91 91 99 110 116 88 90 89 87 77 76 76 63 81 81 95 101 109 132 132 137 146 143 133 122 121 124 127 122 117 105 105 101 110 114 118 123 127 124 124 123 121 124 123 120 118 112 116 108 87 104 101 77 139 118 115 103 103 103 102 105 105 107 107 103 99 96 96 97 90 82 92 84 63 92 68 83 87 93 96
295 229 229 129 279 172 240 193 266 243 103 107 111 115 103 109 101 98 98 111 113 106 126 99 82 45 77 75 84 89 86 89 96 109 123 139 134 144 147 133 134 133 121 124 118 125 118 116 103 100 99 109 112 120 125 127 123 121 118 121 123 120 113 110 114 112 122 118 110 147 119 106 97 99 99 101 105 108 108 112 109 105 105 104 101 98 91 68 81 105 125 91 78 77 91 93 96
253 253 301 306 291 232 327 295 41 289 133 119 110 109 110 106 108 109 112 120 117 107 86 96 99 84 67 67 85 80 91 107 114 120 120 122 139 134 132 137 146 125 125 119 121 116 102 97 108 106 108 101 109 111 115 117 121 121 115 109 116 118 114 123 119 113 108 122 134 128 105 103 102 101 104 107 106 108 113 111 108 105 105 104 99 90 86 78 67 69 46 70 91 87 89 91 89
225 84 26 356 262 353 283 347 202 119 43 114 126 117 113 111 114 115 117 113 107 99 70 95 92 98 78 56 62 96 133 112 110 110 126 131 134 135 131 148 135 126 129 135 120 100 94 93 96 98 89 98 109 114 112 116 120 118 116 115 118 135 121 120 122 111 118 113 103 101 103 108 105 106 109 109 113 114 118 114 109 108 108 107 100 97 88 81 76 81 75 32 81 83 81 87 87
221 206 199 241 241 231 302 234 115 163 81 106 107 118 115 115 115 120 121 118 106 100 78 100 108 114 102 100 87 80 85 116 119 117 122 125 131 132 143 134 130 118 121 117 98 101 93 96 97 100 99 108 118 119 121 125 125 126 119 128 134 124 119 117 118 119 107 118 120 102 91 103 111 111 112 112 112 116 120 118 113 112 106 104 98 92 89 89 92 80 104 93 84 79 85 89 86
341 298 1 285 289 200 263 306 239 104 109 112 109 115 115 120 123 121 123 129 126 119 115 103 81 79 83 96 93 77 82 83 101 111 119 129 131 139 137 131 131 130 115 81 102 94 100 98 106 110 115 121 119 122 120 129 134 129 124 124 122 124 118 114 120 107 125 128 124 123 126 126 112 119 117 115 117 120 118 115 116 116 112 105 95 89 82 75 92 109 101 105 79 73 84 87 85
76 259 90 254 316 160 8 188 159 92 104 107 104 102 118 120 118 122 127 115 119 117 120 72 63 107 98 97 91 103 99 106 111 118 124 127 138 134 133 136 137 135 114 103 107 110 105 111 115 119 123 122 127 124 141 143 134 123 116 121 131 125 109 118 120 132 137 129 133 132 137 133 115 117 116 117 117 117 116 112 113 110 108 103 99 95 93 86 92 102 88 76 67 82 81 85 91
43 114 284 288 39 271 167 160 132 104 103 109 114 122 118 123 123 125 107 135 122 138 103 129 135 104 115 105 114 119 113 117 123 125 127 131 131 137 138 130 133 132 117 113 97 104 108 113 120 128 132 141 145 154 154 134 128 118 128 125 130 136 153 146 140 144 129 123 124 117 112 115 121 118 119 120 121 116 113 116 115 113 108 106 106 104 103 106 106 92 92 80 70 78 86 74 88
220 174 134 224 209 272 220 118 113 146 120 112 109 109 111 121 131 118 126 111 145 115 95 111 115 117 110 94 87 106 121 126 130 128 132 130 134 134 125 129 132 121 98 95 104 118 118 113 121 131 136 142 145 138 136 134 131 129 143 144 145 151 151 151 146 132 122 117 109 109 114 120 120 120 120 120 118 118 116 111 112 116 113 108 100 103 113 121 109 102 95 85 92 91 84 86 93
273 105 45 305 140 214 194 134 131 118 119 121 109 117 126 122 123 124 123 129 125 121 124 190 112 123 116 120 119 128 133 134 124 125 129 134 138 127 134 142 122 113 107 114 112 104 112 120 125 138 144 143 140 137 132 133 131 132 147 132 137 143 148 145 138 128 124 123 120 120 117 117 119 122 121 122 120 117 114 116 115 110 107 100 99 104 111 104 106 107 107 113 113 108 88 105 101
273 59 209 248 120 243 305 125 119 127 125 118 117 113 130 125 112 116 122 115 124 125 119 100 123 131 122 120 122 132 139 131 131 131 137 141 124 137 129 116 117 112 109 114 104 112 123 128 131 142 142 141 137 136 126 137 134 133 124 122 129 135 132 137 133 128 122 114 113 115 121 124 124 127 127 123 124 120 120 118 121 120 117 112 109 114 130 146 115 118 144 158 158 140 160 122 123
300 231 127 328 85 180 224 140 137 131 109 112 110 128 127 112 109 110 125 123 120 110 100 117 135 112 105 119 139 145 132 136 134 136 131 133 139 134 126 118 116 131 116 124 120 121 150 126 169 135 139 139 131 126 126 135 131 123 125 124 124 129 129 131 131 125 119 120 122 139 136 134 131 131 134 131 126 127 129 129 120 114 117 114 116 133 162 117 134 151 165 182 177 172 145 137 157
270 168 55 59 285 265 213 148 130 112 114 133 128 123 112 95 114 128 129 114 97 95 111 123 104 145 133 145 143 144 139 137 139 135 135 137 141 127 116 115 130 132 132 120 106 131 157 181 162 135 133 112 125 122 125 120 122 123 128 123 125 123 124 125 125 128 129 139 149 156 141 137 134 132 135 140 136 136 134 136 126 124 115 119 140 160 131 119 123 139 153 164 164 149 155 170 164
303 294 135 87 232 149 189 129 121 147 135 137 133 123 112 108 96 108 78 102 113 105 189 112 164 53 149 140 139 138 137 139 137 136 133 134 125 120 119 140 126 116 133 112 144 152 142 85 125 138 137 140 119 111 118 123 118 124 121 118 120 127 130 132 137 138 144 157 158 147 140 140 141 139 140 141 144 142 148 127 130 122 134 145 155 129 117 129 145 162 176 179 178 189 184 189 191
310 274 357 32 291 12 29 43 110 129 134 140 139 135 126 109 90 86 110 127 139 98 125 118 112 178 136 125 130 136 137 134 138 137 132 130 148 129 142 137 140 126 104 120 138 158 161 163 136 101 119 111 115 110 113 117 121 120 116 127 129 128 133 140 147 150 160 154 146 140 138 137 137 135 139 134 143 144 138 144 149 150 150 146 128 123 122 138 166 184 187 195 204 212 215 211 206
283 8 324 108 280 68 97 77 186 97 144 139 145 133 127 123 130 115 134 119 94 129 116 107 100 89 105 119 130 134 135 142 143 144 144 151 158 144 153 154 153 132 128 118 112 115 111 86 84 100 114 105 102 117 119 119 125 125 136 133 136 137 142 152 157 149 148 146 146 151 136 156 142 144 134 136 130 136 139 143 148 147 139 137 129 134 153 170 189 197 205 209 217 222 221 217 207
322 103 353 17 0 77 75 184 74 76 167 140 132 138 128 119 132 144 130 127 135 129 123 113 103 106 113 127 132 136 144 146 151 150 156 156 146 150 159 140 119 131 123 127 114 120 112 103 113 105 113 117 112 114 118 134 144 141 144 142 133 138 152 156 152 147 145 147 162 134 150 146 148 134 134 127 127 129 132 146 146 139 139 134 152 170 188 198 203 209 213 216 222 229 227 232 196
8 347 121 324 158 107 28 240 115 153 180 146 137 136 130 127 127 172 133 139 141 135 129 133 131 128 132 133 140 143 146 150 154 157 151 149 138 153 145 139 132 127 132 117 120 117 130 122 124 138 103 118 139 143 142 153 147 142 149 153 146 156 157 153 150 149 149 154 151 149 144 152 134 126 116 122 130 135 141 140 137 133 139 165 183 197 203 207 212 215 216 221 226 226 231 215 132
26 310 22 89 223 324 65 285 113 159 206 148 140 142 128 144 123 162 127 144 135 137 131 135 139 139 137 143 142 145 149 152 161 157 144 139 135 148 133 131 133 122 96 118 125 127 124 124 118 94 125 136 172 135 154 158 146 144 180 157 150 158 143 152 148 148 151 150 140 141 140 136 128 128 150 149 131 133 132 131 137 141 161 179 198 215 194 180 207 201 209 215 226 210 192 138 90
253 12 43 116 162 92 40 303 269 271 159 143 143 157 136 134 142 132 134 139 138 141 139 138 143 141 142 145 143 150 153 153 153 157 137 146 135 147 141 134 134 134 134 142 118 132 140 134 125 138 162 150 129 169 153 157 164 150 156 146 149 164 142 142 143 144 146 146 168 133 125 129 137 140 136 117 125 111 104 99 85 189 186 153 187 211 159 154 203 187 187 202 216 138 81 32 55
319 83 43 22 43 7 152 262 251 264 166 159 159 139 142 153 138 133 101 93 111 123 133 134 140 143 141 142 146 151 152 155 149 148 145 135 146 149 141 132 139 133 128 122 134 126 129 125 127 138 142 130 116 126 131 145 149 128 132 135 140 136 142 144 140 140 141 163 134 135 143 137 131 128 124 130 121 131 136 139 196 204 144 167 181 139 154 176 180 146 111 179 258 124 110 141 116
334 11 14 16 21 346 154 223 235 225 206 155 176 140 153 160 142 141 106 118 142 134 123 132 136 140 143 143 149 148 150 155 148 141 153 137 139 144 137 136 130 116 132 136 134 134 137 130 136 128 131 141 139 147 131 127 105 130 123 139 143 134 149 141 132 124 132 122 153 134 130 128 125 123 127 119 118 109 159 141 151 211 149 153 140 144 151 134 127 88 85 55 259 4 102 138 131
311 51 13 11 9 28 31 16 192 43 301 142 182 154 149 47 119 150 114 140 144 123 132 135 137 143 147 145 146 149 153 146 148 143 139 138 142 131 128 122 123 130 131 134 135 131 126 128 140 139 131 134 136 139 131 132 133 144 141 136 130 154 136 127 123 135 133 126 118 138 132 122 125 122 113 115 119 96 98 65 239 127 136 131 148 125 106 109 135 124 189 146 153 170 129 106 136
26 68 64 46 59 56 67 63 34 89 261 209 190 150 134 160 157 58 110 132 132 134 141 138 143 149 148 147 146 150 150 150 146 142 136 139 133 136 137 136 136 140 132 136 134 129 134 144 136 133 134 136 139 133 128 128 129 129 127 129 124 142 125 122 142 137 127 135 128 86 85 109 106 100 115 113 114 133 161 139 154 121 113 146 123 110 139 143 141 120 99 108 124 130 77 64 166
74 68 61 57 73 76 76 78 53 211 236 175 192 140 133 111 162 128 109 138 141 150 143 141 148 149 151 148 149 147 150 143 155 130 142 137 141 143 137 136 147 132 133 139 133 133 136 143 131 131 131 137 130 131 128 124 127 125 129 130 135 125 128 143 144 136 134 116 104 94 92 85 105 122 113 121 129 143 127 162 140 129 139 105 131 133 95 54 40 96 19 123 160 111 124 146 121
99 123 98 81 82 84 106 124 194 204 189 166 328 119 154 95 110 134 159 171 161 149 148 150 149 155 154 144 144 149 147 150 148 145 145 148 149 149 145 142 144 137 137 137 133 141 148 138 131 133 135 136 131 131 131 131 127 125 136 133 126 124 158 139 125 114 107 108 115 117 78 70 86 85 83 123 118 130 132 129 123 117 100 129 60 44 93 134 83 113 128 85 39 137 132 177 136
131 126 67 77 106 115 97 103 99 298 135 255 165 171 165 155 158 161 187 186 164 161 152 156 153 153 152 144 142 154 142 150 152 150 152 142 146 150 144 149 140 142 139 140 144 146 142 137 133 139 131 132 139 135 130 131 133 137 133 119 121 148 136 120 113 109 110 117 117 106 99 98 107 122 98 97 131 104 103 122 117 125 129 104 84 92 94 210 182 145 172 177 214 149 124 160 138
221 91 159 78 132 104 108 105 79 283 68 334 92 208 194 170 150 167 184 183 171 175 159 161 157 153 152 151 150 152 150 152 168 149 145 147 149 152 146 150 143 142 139 141 151 144 143 134 144 135 134 139 144 131 132 136 143 131 131 127 141 156 134 125 123 120 126 127 125 122 119 102 91 87 113 88 272 157 120 114 113 121 108 91 119 221 140 24 68 330 53 350 118 221 143 124 118
232 149 240 200 360 75 131 176 150 214 47 282 240 255 204 132 193 166 179 192 178 168 171 165 159 156 156 158 154 157 149 162 153 150 143 154 153 141 153 136 146 134 142 153 149 144 145 144 142 134 143 134 138 130 141 136 143 138 130 142 145 143 134 137 135 136 144 138 139 128 124 112 101 91 76 359 58 91 133 120 140 115 105 195 129 97 261 67 35 72 96 255 118 54 98 37 72
291 247 130 25 232 122 120 143 191 218 164 238 252 223 346 151 172 190 176 190 194 168 182 175 160 163 162 159 158 160 153 159 149 156 148 157 149 144 150 142 151 141 152 147 144 153 146 140 146 138 138 140 125 143 130 137 137 133 131 137 147 150 150 142 140 151 137 140 140 126 122 115 108 94 77 47 265 137 109 132 106 110 165 150 94 47 298 96 67 49 70 245 100 175 143 145 113
211 238 133 168 235 115 157 162 191 177 226 201 222 134 154 266 273 173 197 192 209 141 186 193 165 162 167 161 160 163 154 158 156 154 150 155 147 146 144 148 143 151 144 151 154 150 148 142 149 142 145 134 139 133 137 134 135 126 137 148 130 132 122 125 138 128 137 99 94 125 133 125 108 112 115 22 344 357 110 121 140 146 158 91 300 184 99 68 60 101 30 16 34 342 348 56 124
192 240 273 338 339 175 109 117 307 230 226 204 202 236 141 271 186 223 183 193 216 189 203 179 176 166 170 163 160 166 159 160 158 154 153 158 146 146 149 142 145 154 137 151 159 156 150 150 153 143 137 139 135 135 141 145 135 140 154 133 152 153 149 146 137 143 122 120 134 134 134 128 125 118 114 110 146 255 69 54 71 91 126 116 263 82 37 32 27 45 78 30 35 231 215 202 137
40 239 335 198 69 2 140 205 170 181 263 221 205 218 227 182 201 200 191 198 201 191 235 175 187 168 171 174 162 167 161 166 145 173 156 154 147 153 144 148 153 148 155 151 158 157 146 156 139 135 144 140 138 139 153 147 141 163 141 143 150 138 160 116 142 134 129 139 153 130 149 144 122 120 110 128 11 330 122 90 115 34 107 110 332 174 103 60 20 17 34 98 311 16 339 8 38
274 318 307 301 252 202 320 83 186 188 196 214 163 204 197 190 188 192 210 237 232 210 218 224 192 169 178 175 167 168 158 169 159 163 155 152 152 153 144 156 154 152 154 147 154 157 149 148 144 147 153 143 143 147 162 154 158 162 152 146 151 153 126 129 144 130 136 97 147 135 146 111 118 115 118 101 111 337 85 122 77 183 118 115 21 24 54 91 16 57 71 21 294 360 271 215 164
211 237 240 243 224 118 353 323 76 232 312 257 169 188 206 202 189 186 189 169 258 229 137 258 199 180 178 182 169 164 171 166 155 162 155 155 153 153 150 156 155 152 144 152 160 158 157 155 150 158 153 148 153 159 166 160 161 161 153 161 155 148 142 139 152 131 144 122 134 119 131 123 121 115 114 129 124 117 79 96 125 46 115 102 85 41 52 26 4 322 89 294 314 178 19 315 140
268 265 266 232 212 171 204 267 123 287 254 288 284 172 188 209 191 186 182 188 211 217 200 226 207 181 180 185 169 171 163 153 156 159 160 155 156 155 155 156 157 153 155 159 166 163 160 160 157 159 157 160 160 162 162 163 163 161 159 161 157 142 141 170 133 160 143 112 104 128 164 110 120 130 120 131 136 135 142 139 127 121 132 108 87 37 70 14 330 332 360 42 281 35 324 354 45
256 255 253 249 134 97 205 177 266 195 301 343 307 230 183 182 182 182 188 193 209 214 151 295 282 189 186 183 171 169 167 163 169 162 162 162 157 158 156 159 157 159 160 163 165 164 164 158 160 163 160 166 161 163 170 163 161 151 173 146 167 133 154 162 150 143 130 133 149 159 110 119 155 134 145 155 150 146 125 115 166 132 84 133 182 204 130 360 295 348 330 42 8 23 19 315 1
266 246 231 244 129 215 181 180 277 237 269 223 236 259 145 150 189 188 185 189 199 100 133 186 241 284 199 186 174 176 170 166 167 168 162 165 159 160 159 161 160 160 167 163 167 166 167 160 161 169 162 171 166 156 175 164 155 151 157 164 138 159 141 105 126 139 157 145 153 158 142 153 200 154 174 170 92 100 131 178 112 115 132 63 336 25 257 304 54 310 36 20 0 118 347 341 310
231 249 273 286 209 154 344 113 245 297 291 261 337 298 195 186 181 190 184 179 200 207 196 203 210 245 267 195 179 179 175 170 169 165 169 164 164 165 162 162 163 162 171 167 172 167 168 164 164 170 167 167 174 157 175 161 147 149 159 141 116 101 142 148 156 175 165 166 158 173 153 168 195 164 147 122 134 141 102 68 65 116 110 181 197 179 226 204 205 107 83 52 332 347 152 9 305
257 232 252 286 233 257 250 63 320 271 222 119 118 304 245 175 194 204 171 184 202 207 204 208 210 138 290 221 184 178 174 183 172 169 172 164 169 163 163 167 169 166 173 172 176 168 167 165 164 170 169 170 176 161 172 168 161 165 164 165 170 167 172 175 183 175 175 177 178 174 151 168 179 157 152 162 132 138 174 134 200 232 164 171 277 293 307 298 192 141 226 128 232 110 350 289 254
263 284 276 225 252 304 320 296 284 283 295 83 201 291 313 161 187 206 181 191 197 201 218 206 190 173 213 244 193 182 180 177 180 172 170 169 168 168 167 171 174 170 171 173 178 168 165 162 164 170 169 174 169 167 172 176 164 179 180 178 175 176 181 173 179 175 158 187 95 190 155 162 171 172 157 168 136 146 151 158 171 238 182 177 216 194 223 254 160 158 61 49 31 56 295 267 279
255 91 257 317 322 236 260 286 274 289 41 359 253 260 287 276 212 186 173 186 196 202 208 206 198 189 196 228 210 186 181 180 178 180 172 169 174 171 174 172 178 173 171 170 176 170 165 164 165 170 170 176 174 164 177 178 174 181 188 203 174 187 181 157 162 169 158 192 142 167 160 154 167 206 149 136 167 165 177 178 183 240 241 218 200 229 248 230 36 33 269 30 344 321 270 299 308
266 122 307 288 272 278 288 261 267 283 301 244 219 231 257 273 175 211 172 179 201 206 205 202 193 191 194 203 229 191 185 181 181 180 176 174 175 173 176 174 179 176 173 170 174 169 164 167 165 172 170 174 177 168 177 182 181 183 188 195 181 187 167 176 173 170 144 172 154 136 172 147 161 181 179 160 191 170 176 189 191 210 221 194 218 226 230 110 177 45 244 188 235 222 284 2 306
226 266 257 286 283 283 272 258 265 268 258 269 251 203 267 259 140 182 179 197 200 209 208 201 192 191 197 196 222 200 185 185 185 180 181 176 178 173 177 175 180 178 174 170 172 169 167 167 170 174 172 178 174 170 182 183 185 186 189 198 179 187 174 175 189 166 153 169 173 166 181 170 180 174 179 198 171 190 194 162 211 208 191 239 125 355 314 54 211 186 236 270 5 325 308 280 291
295 313 297 226 227 227 218 234 257 272 257 259 202 168 255 276 173 176 178 204 203 194 195 209 196 193 204 197 202 203 187 184 188 179 181 180 172 175 180 176 178 178 176 172 175 169 169 168 171 176 174 179 172 174 182 183 189 187 189 196 185 188 192 164 180 164 184 180 201 189 183 187 233 179 185 177 193 196 186 202 203 231 219 156 279 225 221 217 156 265 210 118 229 263 286 312 285
274 257 251 257 232 210 231 236 236 255 262 256 153 186 196 258 141 257 208 217 201 180 185 197 200 195 202 204 206 214 191 185 184 183 178 181 173 179 180 178 178 178 175 174 178 171 171 171 170 177 177 179 177 177 181 184 190 188 191 191 190 189 193 183 195 191 195 194 193 203 184 194 201 191 220 164 201 188 171 201 200 199 197 222 197 234 280 327 239 224 195 224 212 206 274 275 301
238 246 237 247 250 233 252 240 232 226 253 13 319 293 226 243 258 186 206 217 191 184 179 189 195 199 202 192 192 209 199 184 186 182 180 180 178 180 177 178 178 177 179 177 179 173 171 171 171 177 179 182 180 179 183 186 189 189 194 188 194 194 196 199 194 201 200 200 204 194 188 198 190 211 195 201 186 196 160 190 206 199 174 222 356 346 339 287 278 287 331 256 289 263 249 265 280
231 235 234 232 234 225 243 243 251 258 233 153 119 308 277 275 208 199 212 193 185 182 183 188 189 194 200 197 195 204 206 187 186 182 183 178 178 181 173 178 176 179 180 179 180 177 172 171 172 177 178 182 181 184 183 187 191 193 192 194 192 193 199 200 205 211 201 201 204 217 201 194 191 204 191 198 204 183 189 177 181 204 185 171 207 205 255 264 334 282 268 260 257 303 300 281 267
229 270 267 248 255 251 253 246 248 249 283 124 57 217 272 245 95 143 148 190 167 170 179 182 197 199 190 196 190 210 211 187 186 181 183 180 178 181 176 180 175 178 181 181 181 176 172 171 172 176 178 181 182 187 184 189 191 195 193 198 196 196 197 202 205 213 212 205 205 201 222 211 197 192 189 184 203 187 193 172 181 198 181 200 190 220 221 205 226 247 269 282 297 264 263 275 291
280 255 217 228 242 259 267 272 262 280 306 291 110 251 308 348 310 70 223 161 156 159 174 177 185 192 191 200 198 207 204 192 184 181 184 181 180 180 176 178 179 177 180 180 183 173 177 175 174 178 179 181 184 187 187 188 192 194 194 198 199 199 200 201 203 207 213 218 202 220 189 225 235 166 184 173 184 198 195 196 188 202 180 197 206 210 230 242 209 239 246 260 258 268 264 259 264
347 309 250 269 309 259 259 263 309 302 249 263 250 233 227 153 194 87 224 212 148 161 167 180 186 187 161 191 196 231 240 202 187 182 180 183 181 181 178 177 181 180 178 181 182 173 180 176 175 180 181 184 183 187 190 189 191 196 195 198 201 199 201 209 204 201 209 204 211 208 209 205 197 210 191 188 194 183 197 205 213 209 179 205 211 205 225 221 229 241 244 232 247 262 271 278 285
202 268 306 355 311 305 283 275 255 235 251 272 291 282 202 107 246 290 352 289 172 171 185 176 182 187 191 190 189 184 237 214 190 180 180 183 183 180 180 181 182 180 181 179 182 174 179 181 180 182 184 186 187 186 191 192 190 196 195 198 203 207 205 208 215 204 204 209 200 212 219 204 204 197 219 204 188 180 191 201 211 222 208 210 216 217 207 214 212 239 240 242 253 269 275 270 273
273 9 217 259 25 241 231 250 247 247 242 271 253 231 238 233 62 257 117 334 298 253 199 183 178 186 200 202 191 175 233 222 193 182 181 184 181 181 182 180 183 183 180 178 180 180 180 186 186 186 191 188 191 187 191 193 194 197 196 199 200 205 212 209 211 217 209 209 211 200 215 210 205 204 190 228 196 193 184 188 212 213 204 221 213 234 231 232 225 243 248 244 237 224 235 247 256
255 269 228 260 257 268 295 288 296 277 257 212 258 246 237 28 90 1 360 239 170 341 293 208 189 183 189 201 200 160 233 228 197 186 182 185 184 184 182 182 182 183 183 181 184 186 185 186 190 185 192 194 196 193 186 194 195 200 195 189 207 203 207 218 207 212 215 212 212 209 205 204 210 197 196 197 212 227 204 197 195 212 213 202 213 204 219 208 224 239 254 240 238 174 227 250 262
263 216 249 222 243 160 193 80 273 265 272 289 316 288 114 118 15 11 3 332 292 195 269 279 201 190 186 188 204 159 187 237 223 188 183 187 188 184 182 185 182 184 184 184 187 193 188 185 187 193 193 195 196 199 188 192 196 197 201 197 196 198 204 206 216 206 214 214 211 220 207 214 191 213 203 194 203 216 226 218 227 207 221 206 210 214 218 214 219 226 235 259 271 250 253 253 250
277 286 268 260 245 246 247 261 217 233 232 238 245 272 117 45 50 45 58 358 299 270 225 314 265 185 182 185 193 172 194 204 218 193 190 188 187 187 180 185 186 183 186 189 186 193 191 187 190 191 194 199 195 198 192 190 200 197 202 201 205 195 203 207 210 210 211 210 217 207 218 211 208 200 213 210 201 208 211 216 227 240 252 243 192 205 242 229 229 225 237 239 228 227 237 254 261